Theta_e
300 300 300 300 300 300 299 297 297 296 295 295 295 295 297 297 297 291 286 287 285 280 279 280 280 273 275 277 272 273 272 272 270 269 268 271 270 273 271 272 271 270 268 268 270 266 263 275 275 270 273 275 273 272
300 300 300 300 300 299 299 297 296 296 295 295 295 295 297 297 297 292 282 287 291 284 277 282 283 284 283 282 280 277 275 272 276 272 271 269 267 272 268 267 275 269 271 270 271 270 276 276 273 275 274 272 273 274
301 300 300 300 300 299 299 297 296 295 294 295 295 295 297 297 296 294 287 287 284 281 277 276 274 281 288 286 287 275 272 277 273 279 275 273 270 275 267 267 270 274 275 273 274 274 274 274 274 273 273 274 274 274
301 301 300 300 300 299 299 297 296 295 294 294 294 295 296 296 295 294 288 287 286 282 273 272 283 282 286 286 284 283 280 281 279 277 274 272 273 277 273 272 270 272 273 270 274 273 274 274 273 273 273 273 273 273
301 301 301 300 299 299 298 297 296 295 294 294 294 295 296 296 295 293 288 290 289 283 273 272 275 276 279 279 279 279 277 277 273 272 273 275 278 276 273 270 269 272 269 268 268 271 271 273 273 272 271 271 272 272
301 301 301 301 299 299 298 297 296 294 293 293 293 295 296 295 294 286 279 289 290 288 279 271 272 269 266 270 274 274 278 277 277 272 274 276 282 279 264 259 271 271 272 272 270 270 271 273 273 270 270 270 271 270
301 300 301 300 300 299 298 297 295 294 293 293 293 295 294 295 290 280 274 283 291 287 280 271 266 271 266 266 267 274 271 279 272 270 271 276 278 275 265 262 269 270 269 270 269 269 270 270 267 268 269 270 269 266
296 297 299 299 300 299 298 296 295 293 293 292 294 294 293 293 292 287 290 293 290 283 277 265 267 267 269 265 265 262 268 271 267 264 268 269 274 269 260 269 271 269 269 268 268 267 268 268 268 267 267 266 266 266
294 295 296 296 299 298 297 296 294 293 292 292 293 291 288 285 283 284 291 291 288 283 272 266 261 263 269 264 263 262 260 263 260 259 260 265 263 260 266 269 269 268 267 266 266 264 265 264 264 263 262 261 261 263
294 294 295 295 298 298 296 295 293 292 291 292 282 281 277 281 290 289 285 281 280 276 273 266 261 264 268 263 258 258 256 255 261 260 259 256 259 263 268 267 267 267 265 263 263 264 259 258 257 258 257 256 255 256
292 293 293 294 296 298 296 294 293 291 291 282 279 278 278 288 282 278 274 271 266 268 267 263 264 263 267 262 260 263 258 253 257 261 259 253 258 266 262 260 259 258 258 258 257 256 256 256 255 253 256 253 251 251
290 291 293 293 295 297 295 294 292 288 284 283 280 285 282 278 275 272 266 263 262 269 260 264 264 265 262 264 266 258 257 256 258 251 257 255 265 262 260 259 257 253 252 253 251 255 254 257 254 254 254 253 252 250
291 290 292 293 294 296 295 293 291 291 289 284 279 276 272 266 263 262 259 261 259 259 260 259 261 264 262 264 256 256 257 258 252 254 256 261 262 258 258 252 253 247 245 247 250 247 247 250 248 248 254 252 248 249
291 290 291 293 294 296 294 292 291 290 282 275 274 268 265 259 261 261 260 261 264 261 258 259 258 261 257 261 255 257 253 252 252 253 257 259 261 263 256 249 253 256 251 251 251 249 249 250 252 249 249 250 246 252
291 291 290 292 293 295 293 291 292 283 278 273 272 265 264 261 257 254 251 257 260 260 262 260 259 265 257 259 257 254 255 253 256 258 259 260 255 259 254 249 252 251 250 250 249 249 252 250 248 251 251 247 245 247
290 290 287 292 293 293 292 291 281 279 273 274 270 264 260 262 259 255 253 257 258 263 260 262 258 262 258 260 258 259 254 255 260 256 259 253 253 253 253 252 255 252 251 251 247 247 248 248 249 253 250 250 246 246
288 285 290 292 293 293 289 280 278 273 273 269 266 260 264 262 262 258 258 260 261 262 259 261 258 263 261 258 256 259 258 262 261 259 256 252 257 259 253 251 251 249 249 248 247 247 249 246 243 246 253 251 248 251
282 286 289 292 291 283 275 277 274 270 266 266 265 264 263 260 257 254 254 258 263 259 261 261 264 261 262 256 260 265 264 262 254 257 255 253 251 251 252 255 251 251 250 250 250 249 246 247 249 253 249 249 250 252
284 286 288 292 284 277 273 272 271 267 263 261 262 263 262 260 258 257 255 258 259 261 264 261 260 258 262 264 265 265 264 261 261 261 256 252 252 252 251 250 250 250 251 252 250 251 250 249 252 250 251 247 251 254
286 287 287 288 283 274 269 266 267 267 263 263 263 263 262 260 259 257 258 260 262 263 261 259 260 261 265 267 268 270 269 264 260 260 260 259 254 249 252 252 254 251 251 249 248 249 248 252 249 248 247 249 248 254
285 285 288 277 271 270 268 265 264 264 262 263 262 264 260 261 260 259 260 260 263 259 258 259 258 260 261 266 266 265 266 266 264 264 264 260 255 255 252 250 249 248 252 250 251 252 249 250 252 250 246 249 250 252
282 284 274 276 269 267 264 263 264 264 263 260 262 261 260 258 258 258 258 259 258 259 257 255 258 256 259 262 262 264 263 263 262 258 259 261 258 255 255 253 252 254 250 250 249 251 252 252 249 248 245 251 252 254
282 277 272 271 267 265 261 264 263 262 262 259 259 259 256 255 256 257 257 254 256 253 254 255 254 252 256 257 258 262 262 261 260 258 257 255 250 248 249 248 248 252 252 251 246 247 250 250 249 248 249 252 253 256
276 268 267 265 265 260 261 260 260 260 260 258 258 253 253 253 255 255 254 250 253 252 253 254 251 254 256 259 261 261 260 258 255 255 251 252 253 252 246 246 244 245 248 247 245 248 247 247 248 249 252 254 256 257
269 263 265 260 259 260 258 258 258 259 256 254 252 253 253 253 252 252 252 253 250 248 247 250 253 254 255 258 261 259 256 256 258 257 251 246 246 249 250 246 246 246 243 248 249 247 249 247 250 251 255 257 257 257
261 258 261 261 259 262 261 259 258 256 255 251 251 251 250 251 253 254 252 251 248 246 247 249 248 249 255 258 261 259 256 252 250 254 252 246 248 252 252 254 253 254 244 244 245 247 250 253 253 255 256 258 258 258
260 257 253 254 257 257 256 255 253 255 252 253 251 250 250 251 251 254 251 247 249 246 244 246 251 249 253 257 258 256 254 249 248 250 245 243 243 244 249 253 252 252 243 243 243 244 248 251 253 255 256 258 259 259
256 256 260 258 256 253 254 252 253 254 251 248 252 252 255 256 258 253 249 248 245 244 245 244 250 253 255 255 256 256 254 248 246 245 246 247 244 244 244 244 245 257 246 244 246 249 250 252 254 256 257 257 258 260
257 256 258 255 254 254 252 253 251 248 250 251 254 252 254 253 248 245 247 247 245 246 248 249 253 255 256 253 255 254 252 248 253 254 253 253 252 254 247 244 244 245 244 245 254 259 259 261 261 260 260 259 260 259
256 250 255 251 254 250 247 245 246 246 245 247 248 249 250 247 244 243 244 246 247 246 247 251 254 257 257 254 255 255 249 242 243 250 254 254 254 248 244 245 247 246 247 249 253 255 259 259 259 260 261 261 261 261
247 250 253 249 247 246 245 244 244 245 244 245 244 249 247 245 245 246 245 246 248 249 252 255 256 256 257 257 256 253 252 247 243 243 243 243 243 243 244 246 245 245 247 250 254 256 257 258 259 260 260 259 260 260
250 247 251 249 248 248 243 243 241 243 243 247 247 243 246 248 250 250 250 251 254 254 254 256 257 253 251 250 247 244 248 244 245 246 246 246 245 246 247 246 247 247 250 254 256 257 258 258 259 260 259 259 260 262
244 243 244 247 248 248 246 247 247 248 246 246 247 245 251 254 255 252 252 251 250 250 251 251 251 251 250 247 244 244 245 243 246 255 257 258 256 256 249 249 249 250 254 256 258 258 258 257 259 259 260 260 261 263
Wind_Speed
23 23 23 21 21 20 16 16 17 14 16 17 19 19 21 16 14 4 3 4 3 3 7 6 4 3 5 4 3 6 7 5 4 6 3 4 4 4 3 3 4 4 3 3 3 4 3 15 4 6 4 5 6 5
24 24 22 22 22 21 17 17 17 14 16 17 18 20 21 17 13 2 2 2 3 4 7 4 7 9 7 9 5 2 2 2 3 3 3 4 4 4 2 4 4 4 4 3 4 3 4 3 6 4 4 4 6 9
26 25 24 24 23 21 19 17 18 14 16 17 18 19 21 18 11 7 2 2 1 2 5 2 6 3 1 3 2 1 2 2 3 1 3 3 4 2 3 2 3 6 7 3 2 3 2 4 1 3 4 5 8 8
26 27 26 25 24 22 20 18 18 15 16 16 17 19 20 13 9 7 3 3 2 2 3 8 2 6 0 3 4 4 3 3 2 3 3 3 4 2 2 1 3 2 6 5 2 3 3 5 9 8 9 5 8 8
26 26 27 25 24 24 21 18 17 15 16 16 17 19 19 13 8 1 1 3 2 2 4 6 2 3 2 1 5 4 3 4 3 2 2 3 2 2 1 2 2 3 2 2 2 3 3 4 9 10 9 10 9 9
25 25 26 26 25 23 22 20 17 15 17 15 18 17 15 9 2 3 3 1 2 3 3 5 3 4 4 3 0 2 4 4 2 2 3 3 3 2 2 1 1 2 2 1 3 4 4 6 1 11 8 10 8 6
25 25 25 26 26 24 22 20 18 15 17 15 17 16 11 10 3 3 7 5 7 3 2 5 6 3 1 1 3 2 3 1 2 2 2 2 2 3 2 2 1 3 3 1 3 5 1 5 5 8 7 7 5 3
26 26 26 25 25 24 23 21 17 16 15 14 16 13 7 6 6 4 1 9 5 2 2 2 6 5 4 3 3 2 2 2 3 2 3 2 3 2 1 4 1 2 1 1 5 4 2 3 4 7 5 5 6 7
28 26 25 22 25 24 24 21 17 15 12 12 8 2 2 1 2 1 4 6 2 2 2 3 3 5 3 1 2 4 1 2 2 1 1 2 3 3 5 4 2 1 1 2 4 3 4 4 5 5 5 6 4 5
27 27 25 25 22 24 24 21 17 14 11 3 4 2 2 2 3 2 3 3 3 1 1 3 1 3 2 3 3 2 2 0 1 4 2 3 5 3 3 3 3 3 3 1 3 2 3 3 2 5 4 3 3 4
28 27 27 25 23 25 26 23 19 14 7 2 2 3 2 2 2 1 3 2 1 2 2 3 4 2 2 2 3 1 2 1 2 5 4 3 5 4 4 4 2 0 0 3 2 2 3 4 4 3 6 4 4 5
26 27 26 26 25 25 27 24 20 8 4 6 5 2 2 1 1 3 3 3 2 6 3 4 4 4 2 2 1 3 2 3 5 1 5 4 6 3 5 5 4 3 2 3 3 4 4 6 5 5 6 5 5 5
28 26 26 25 25 24 28 25 22 14 9 3 3 2 3 2 1 8 7 4 2 4 4 2 1 2 2 3 2 3 3 5 1 4 5 7 3 3 6 3 2 2 2 1 3 3 4 6 3 5 6 5 5 6
27 26 27 26 24 27 28 26 23 18 5 3 5 6 6 4 7 7 6 5 4 4 4 3 2 3 1 3 1 3 3 3 4 2 8 5 7 7 6 3 4 5 6 4 5 4 5 6 6 5 7 5 3 7
28 25 25 26 22 29 29 27 25 4 4 5 5 7 8 3 2 3 2 0 2 3 4 3 3 2 2 3 1 2 6 5 7 7 5 4 4 6 6 4 4 4 5 5 3 4 6 5 4 6 6 4 4 5
26 25 16 24 19 32 31 23 6 3 3 3 5 1 0 2 3 1 2 2 3 3 2 3 3 3 3 3 2 6 5 6 6 5 5 2 3 3 4 5 6 3 4 4 3 3 4 4 5 6 7 5 4 5
21 4 7 19 25 33 27 6 4 4 7 5 4 1 4 1 4 3 4 4 2 4 3 4 4 6 3 2 3 5 6 5 5 5 2 4 5 7 6 4 4 4 4 4 3 4 5 3 3 3 6 4 5 7
10 12 15 17 24 12 3 3 4 4 5 3 3 4 2 2 3 1 3 2 4 3 3 5 4 3 5 4 5 4 4 4 3 3 3 3 3 3 3 5 4 4 4 4 4 4 3 3 4 4 4 5 7 7
12 10 19 26 13 7 4 2 2 5 3 3 2 2 2 2 1 1 2 1 2 2 4 3 3 4 5 4 4 3 3 3 3 2 3 3 3 4 4 3 3 3 3 3 2 3 3 4 5 3 4 2 5 6
25 28 25 29 14 4 5 2 1 4 4 3 3 3 3 2 2 2 2 2 3 3 2 3 6 5 4 3 1 1 2 2 3 1 3 1 1 4 4 4 3 1 2 2 2 2 3 4 2 3 3 4 4 8
16 22 18 10 5 6 4 3 3 2 4 3 2 2 3 1 2 2 2 0 2 3 3 5 4 4 3 1 0 1 3 3 4 4 4 2 2 3 2 1 2 1 1 1 2 4 2 4 4 3 3 5 5 7
2 21 5 6 5 4 4 3 3 3 4 2 3 2 3 2 2 1 1 2 3 5 4 3 2 1 4 3 2 2 3 3 2 1 2 5 4 2 1 3 3 2 1 3 3 4 4 4 3 3 3 7 7 7
15 5 6 5 6 5 2 1 4 3 4 3 1 4 2 1 1 1 0 3 4 3 1 1 2 3 3 3 2 1 3 2 0 1 2 2 2 2 3 3 2 2 2 3 3 3 4 4 4 4 5 7 7 8
11 7 5 4 5 3 0 3 3 4 3 2 3 3 0 2 1 3 3 4 4 2 3 5 2 4 3 2 2 2 3 2 2 3 3 3 3 2 2 2 2 3 3 3 3 3 3 3 5 5 6 7 8 8
8 5 4 5 2 5 4 3 2 3 3 1 4 1 1 2 3 1 4 5 3 2 3 4 2 2 1 1 1 2 4 3 2 2 2 1 3 2 2 1 2 3 2 2 4 3 4 5 5 5 8 8 10 12
8 3 1 4 2 4 4 5 5 5 4 3 1 1 2 4 3 5 4 3 2 2 1 1 1 3 3 3 2 3 3 3 2 3 2 2 2 3 3 2 2 4 2 1 1 4 7 7 7 11 10 11 12 11
6 2 1 2 1 6 6 4 3 3 4 5 4 3 4 3 4 5 2 1 0 2 3 2 1 1 2 3 2 3 3 3 1 2 2 2 2 2 3 3 2 3 2 1 3 3 5 8 10 10 10 10 9 8
3 3 5 2 4 2 7 4 3 3 3 2 4 3 8 8 4 1 2 2 2 2 3 3 3 2 1 2 2 2 3 3 2 2 1 1 2 2 3 2 3 5 2 3 4 4 5 7 8 10 10 10 11 8
4 3 1 5 4 6 4 4 4 3 1 4 5 3 3 2 0 2 3 2 2 1 2 3 2 0 2 2 3 4 4 3 3 4 3 2 4 4 3 3 2 3 3 5 9 8 10 9 9 9 10 8 8 8
4 3 5 4 6 4 3 1 1 2 1 1 3 3 3 3 2 1 2 3 3 1 2 2 1 0 1 1 2 4 4 2 1 3 4 2 4 2 3 3 4 4 4 5 6 8 10 6 7 5 6 5 6 7
2 3 6 6 4 3 3 2 2 0 3 3 2 4 2 2 3 2 2 2 3 2 1 1 3 4 2 2 3 2 2 3 2 3 2 1 2 2 3 4 3 3 4 5 6 6 7 7 7 8 9 10 10 8
5 5 5 5 1 3 3 4 2 4 5 4 4 2 3 3 3 3 5 5 3 4 5 4 3 3 3 1 1 1 1 3 3 3 3 2 3 4 4 3 3 3 4 5 5 6 7 7 7 8 8 9 9 9
3 3 4 5 4 4 4 4 6 3 4 3 3 1 1 2 3 2 1 3 3 2 3 2 2 1 3 3 2 2 3 3 5 6 6 5 5 6 3 3 2 3 5 5 6 5 7 7 7 8 9 9 9 9
Wind_Direction
283 281 278 284 281 277 275 281 292 297 300 306 308 306 317 322 330 343 264 191 213 252 270 222 246 218 302 269 273 298 346 348 339 1 353 341 304 1 8 355 346 22 337 12 17 59 4 342 15 57 327 310 313 318
281 281 278 277 276 275 272 274 284 288 293 299 303 306 313 318 309 38 267 254 211 238 253 239 241 244 229 256 286 309 266 292 332 332 353 320 316 341 359 4 346 38 357 357 20 75 95 26 68 359 333 304 331 328
278 278 278 273 270 267 267 266 274 279 288 295 300 303 309 309 302 331 223 214 264 261 293 356 262 244 200 243 184 222 304 307 327 258 296 279 286 331 354 16 305 0 14 41 166 74 144 42 115 19 317 324 328 328
270 269 264 267 267 255 259 256 267 273 282 290 297 299 308 303 308 320 200 189 170 276 273 280 286 264 235 188 210 234 285 255 273 241 235 255 270 31 0 328 57 337 332 334 36 54 95 129 41 2 339 347 345 342
269 267 266 256 258 253 247 245 256 265 276 284 290 294 302 296 300 267 203 225 142 185 268 281 293 278 6 191 238 244 227 257 248 297 238 250 295 327 53 49 27 345 12 8 317 68 316 307 9 360 352 353 347 352
273 270 269 255 250 248 237 234 244 254 269 279 284 298 307 288 69 82 341 235 166 165 300 298 275 328 333 20 282 253 240 234 225 207 264 287 296 310 83 208 193 51 8 249 292 321 262 291 181 13 347 348 350 5
285 276 271 267 248 243 229 226 233 246 261 273 279 300 300 291 143 166 192 197 174 132 257 301 313 292 199 19 331 327 319 282 149 266 273 306 304 33 87 199 297 353 322 145 351 311 248 48 343 341 343 341 345 336
285 289 288 276 253 240 220 218 223 238 255 271 279 296 307 298 248 231 239 149 138 113 77 240 267 352 13 330 335 20 315 343 358 242 339 9 306 77 317 239 52 9 285 336 14 21 358 328 7 2 352 350 18 18
293 291 291 288 267 236 211 208 215 233 249 268 316 349 36 133 209 199 188 116 70 203 216 153 173 260 355 303 286 352 50 336 283 101 275 64 323 230 215 195 203 212 177 306 335 33 34 43 338 345 353 0 17 355
293 291 288 288 275 229 203 198 204 221 238 163 73 113 229 203 304 27 169 213 167 167 45 214 35 280 53 5 313 25 23 170 299 258 350 79 260 261 222 187 151 176 184 145 82 356 5 341 317 314 307 277 260 287
293 296 293 290 287 223 195 187 194 199 122 142 158 222 198 352 74 208 227 196 286 250 171 227 178 224 323 79 242 51 204 308 40 264 103 313 286 232 177 185 204 26 99 211 200 223 211 201 238 277 307 289 291 291
282 285 291 293 288 222 190 182 183 157 164 178 159 116 78 114 160 209 217 324 169 225 258 168 208 188 288 91 73 317 143 41 244 305 66 295 249 216 167 208 227 197 185 213 212 228 240 236 233 236 261 267 255 263
277 275 279 284 275 217 184 177 174 148 120 70 73 149 115 276 114 184 203 260 253 197 206 171 216 154 26 66 64 65 74 229 24 43 229 231 258 214 199 187 224 190 179 245 271 247 258 260 262 212 260 253 271 294
277 274 274 281 278 201 176 170 172 141 109 135 170 211 176 242 237 193 184 186 229 110 139 126 72 139 188 69 125 84 246 57 32 10 239 249 211 190 173 197 126 206 200 223 248 257 261 254 270 267 245 253 268 284
297 271 272 281 277 181 169 168 150 131 128 167 158 212 211 230 233 224 221 68 259 131 110 66 36 96 7 84 55 75 14 271 204 231 240 256 251 160 178 192 197 204 198 230 233 235 252 258 265 293 278 265 253 279
308 284 266 271 259 170 165 148 109 83 80 170 192 139 118 77 284 306 192 208 203 132 69 62 117 75 272 145 96 221 121 231 254 226 241 277 207 203 182 197 204 185 189 230 237 237 265 270 258 268 302 281 251 244
308 257 283 279 195 164 137 95 102 142 175 186 231 67 141 150 193 201 149 211 159 90 167 119 127 197 77 43 273 192 206 230 236 266 257 223 205 189 194 182 193 191 226 242 254 249 247 269 297 323 310 291 284 277
290 286 261 251 159 98 49 58 99 120 179 185 166 184 179 129 141 237 229 200 114 142 110 200 128 155 193 198 254 231 233 257 230 254 260 259 213 228 179 170 184 198 226 263 242 281 268 289 293 271 283 279 299 278
277 276 281 176 139 99 102 89 87 158 189 146 115 103 106 130 115 83 119 143 148 148 101 53 114 205 230 213 215 248 239 213 263 286 265 269 200 182 174 136 132 178 223 236 242 255 255 240 250 274 269 285 280 294
283 281 294 165 114 106 108 85 29 122 169 173 96 128 100 99 129 79 76 59 84 85 79 184 214 218 202 247 215 219 239 171 137 22 307 292 162 139 192 164 187 201 256 291 277 260 316 312 278 247 261 270 298 300
284 274 163 104 69 60 78 135 92 104 132 104 123 119 94 68 67 110 134 8 77 193 234 215 230 257 283 284 204 254 263 189 195 186 203 196 182 146 159 171 139 120 205 26 327 297 281 252 262 287 294 294 269 273
140 125 90 64 83 76 85 15 100 117 76 101 109 80 98 108 137 166 156 88 221 236 196 194 244 289 333 341 323 306 305 303 112 115 60 114 128 145 232 204 134 248 243 228 205 252 270 268 296 304 295 294 289 285
134 95 61 76 86 49 53 299 88 23 107 151 121 84 34 71 241 334 110 219 251 244 238 253 272 249 239 283 289 310 23 348 358 57 78 76 78 68 95 97 73 116 15 290 211 248 266 323 318 305 295 294 295 300
52 57 69 76 75 115 102 58 64 91 91 64 92 82 248 173 336 57 239 253 252 319 18 338 344 327 332 327 24 15 356 11 87 77 50 86 84 18 46 93 213 223 205 263 258 285 318 302 312 305 299 301 302 298
83 29 73 75 21 115 97 92 75 79 98 127 99 76 230 90 88 158 230 273 312 323 322 318 351 15 167 300 39 54 19 19 65 86 316 128 109 35 23 316 282 245 185 335 337 344 310 300 296 297 307 302 307 310
77 6 107 156 144 124 155 119 157 145 121 98 121 217 64 97 99 239 233 238 242 225 290 14 1 348 18 12 2 22 350 1 9 81 309 158 148 141 146 104 329 299 177 114 13 310 309 313 312 314 313 317 312 312
113 174 299 225 91 117 95 63 73 101 110 147 177 127 94 112 234 253 290 258 113 245 210 224 236 191 326 336 12 16 6 18 91 143 159 121 144 186 152 152 224 265 67 205 229 229 288 305 305 308 308 309 308 312
109 156 133 169 89 13 114 90 108 137 177 226 89 139 157 178 196 234 212 276 220 279 268 251 236 239 314 352 0 360 48 32 34 41 43 41 41 33 22 0 6 10 295 270 269 268 254 271 288 299 305 305 310 314
74 21 88 51 65 47 55 117 170 221 204 121 118 171 209 49 18 341 306 309 312 9 23 21 16 119 77 29 50 42 35 29 64 52 52 317 338 320 26 16 328 302 332 321 304 302 298 297 309 305 296 298 298 300
35 347 88 54 65 53 288 168 189 271 320 134 124 83 56 20 283 272 331 354 26 353 265 275 302 353 134 109 95 51 28 37 63 151 149 191 230 307 359 329 317 328 321 315 325 324 331 332 316 317 327 339 350 346
330 30 74 52 78 274 250 295 277 64 31 45 356 94 152 202 326 308 356 289 277 285 350 51 61 22 78 76 80 103 28 339 330 274 249 301 331 331 297 289 306 304 312 321 329 331 334 335 334 339 353 359 356 355
18 51 106 84 348 296 25 48 32 60 347 45 351 28 17 52 50 341 354 335 1 40 14 9 70 59 24 76 75 93 306 261 294 320 347 3 336 282 278 299 302 313 327 329 331 333 335 332 333 350 352 354 355 2
55 54 57 89 40 16 334 68 24 24 27 41 354 199 46 78 86 12 68 34 27 2 15 22 27 34 39 42 39 293 297 281 301 341 357 346 302 294 288 286 297 329 333 335 331 338 342 336 351 353 359 4 11 19